STARLINK-31683, 59573

Orbit data source: Space-Track

STARLINK-31683, 59573 is a payload satellite owned by SpaceX/Seattle (US) in LEO that was launched on Tue, 23 Apr 2024 UTC via an FALCON 9 launch vehicle from the Air Force Eastern Test Range (AFETR). Payload-class satellites include a variety of spacecraft equipped with specific instruments for various scientific and technological missions. These include communications satellites like Starlink; space stations such as the ISS; scientific satellites like the Hubble; Earth observation satellites from companies like Planet Labs, Umbra, and HawkEye 360; GPS; miniature CubeSats for education and research; and military/defense satellites.

Loading next visibility...
Identifier
59573, 2024-076K
Orbit
LEO
Country
Flag of USUS
Related business
Manufacturer
SpaceX/Seattle
Mission
Operational Commercial Communications
Bus & Motor
STARLINK V2M, Unknown motor
Mass
730 kg wet, ~700 kg dry
Launch date (UTC)
2024-04-23 (2 years ago)
Launch vehicle
FALCON 9
Launch site
Air Force Eastern Test Range (AFETR)
Object type
Payload
Rocket body
Debris
Shape & HBR
Box + 2 Pan, 17.7 m
Radar Cross Section
33.884 m², Large (>1 m²)

Expand to show TLE details & history
Last TLE update: 1 day ago

TLE from 1 day ago
0 STARLINK-31683
1 59573U 24076K   25349.46895358  .00000504  00000-0  27851-4 0  9995
2 59573  42.9994 124.5078 0001302 265.9144  94.1558 15.27578455 93623
Epoch: 2025-12-15T11:15Z
TLE epoch observation values (Epoch: 2025-12-15T11:15:17.589Z)
Latitude
-0.00007°
Longitude
-128.68264°
Altitude
482.894 km
Speed
7.626 km/s
True Right ascension
08h 18m 01s
True Declination
0° 00' 00"
Sunlit
Object was in full shadow at epoch
Visualization orbit readout
Latitude
Unknown
Longitude
Unknown
Altitude
Unknown
Speed
Unknown
Apparent Right ascension
Unknown
Apparent Declination
Unknown
Sunlit
N/A
Visualization observer readout
Local Sidereal Time
11:39:05
Azimuth
Unknown
Elevation
Unknown
Doppler factor
Unknown
Orbital elements
Apogee altitude
485.893 km
Perigee altitude
484.105 km
Semi-major axis
6,863.136 km
Eccentricity
0.00013
Inclination
42.9994°
RAAN
124.5078°
Arg. of periapsis
265.9144°
True anomaly
94.17068°
Mean anomaly
94.1558°
Eccentric anomaly
94.16324°
Mean motion
3.81733 °/min
Orbital period
94.31 mins
BSTAR
0.000027851
Loading maneuver chart data...
Computing Atmospheric mass density...
Loading historical data...
Loading historical data...
Loading historical data...
Loading historical data...
Loading historical data...
Loading historical data...
Loading historical data...

Documentation

Showing up to 5 results
|